Home > Weather > Gorleben > Past weeks

Flag for Germany Past Weather in Gorleben, Lower Saxony, Germany — Yesterday and Last 2 Weeks

Now
75 °F

Partly sunny.


Feels Like: 78 °F
Forecast: 60 / 72 °F
Wind: 13 mph from Southwest

Location: Mecklenburg-Vorpommern - Parchim

Current Time: Jul 29, 2016 at 6:03:16 PM

Latest Report: Jul 29, 2016 at 5:20 PM


Visibility: N/A

Pressure: 29.83 "Hg

Humidity: 57%

Dew Point: 59 °F

Location of GorlebenLocation

Past Weather in Gorleben — Graph

°F

Gorleben Temperature Yesterday

Maximum temperature yesterday: 73 °F (at 3:50 PM)
Minimum temperature yesterday: 63 °F (at 6:20 AM)
Average temperature yesterday: 68 °F

High & Low Weather Summary for the Past Weeks

 TemperatureHumidityPressure
High86 °F (Jul 21, 5:20 PM)100% (Jul 16, 6:20 AM)30.21 "Hg (Jul 16, 6:20 AM)
Low48 °F (Jul 16, 6:20 AM)25% (Jul 22, 3:20 PM)29.83 "Hg (Jul 29, 1:20 PM)
Average70 °F67%30.06 "Hg
* Reported Jul 14 4:20 PM — Jul 29 4:50 PM, Gorleben, Weather by CustomWeather, © 2016

Note: Actual official high and low records may vary slightly from our data, if they occured in-between our weather recording intervals... More about our weather records

Advertising

Gorleben Weather History for the Previous 24 Hours

Scroll right to see more
 ConditionsComfort  
Time TempWeatherWind HumidityBarometerVisibility
4:50 PM
Fri, Jul 29
73 °FPartly sunny.13 mph57%29.83 "HgN/A
4:20 PM75 °FPartly sunny.13 mph57%29.83 "HgN/A
3:50 PM73 °FPartly sunny.13 mph57%29.83 "HgN/A
3:20 PM75 °FBroken clouds.10 mph54%29.83 "HgN/A
2:50 PM72 °FPartly sunny.13 mph61%29.83 "HgN/A
2:20 PM73 °FPartly sunny.12 mph57%29.83 "HgN/A
1:50 PM73 °FPartly sunny.16 mph57%29.83 "HgN/A
1:20 PM73 °FScattered clouds.9 mph61%29.83 "HgN/A
12:50 PM70 °FScattered clouds.13 mph69%29.86 "HgN/A
12:20 PM72 °FPartly sunny.14 mph69%29.86 "HgN/A
11:50 AM72 °FScattered clouds.13 mph65%29.86 "HgN/A
11:20 AM70 °FPartly sunny.10 mph78%29.86 "HgN/A
10:50 AM68 °FPartly sunny.10 mph78%29.86 "HgN/A
10:20 AM66 °FPartly sunny.9 mph83%29.86 "HgN/A
9:50 AM66 °FPartly sunny.10 mph83%29.86 "HgN/A
9:20 AM66 °FPartly sunny.8 mph83%29.86 "Hg6 mi
8:50 AM64 °FPartly sunny.8 mph94%29.86 "Hg4 mi
8:20 AM64 °FFog.6 mph94%29.86 "Hg3 mi
7:50 AM63 °FFog.10 mph100%29.86 "Hg3 mi
7:20 AM63 °FFog.8 mph100%29.86 "Hg3 mi
6:50 AM63 °FLow clouds.6 mph100%29.86 "Hg4 mi
6:20 AM63 °FPassing clouds.7 mph100%29.86 "Hg4 mi
6:50 PM
Thu, Jul 28
73 °FSunny.7 mph57%29.92 "Hg10 mi
6:20 PM73 °FScattered clouds.5 mph57%29.92 "HgN/A
Weather by CustomWeather, © 2016

See weather overviewHow to use our weather pages